Location: Brachbach
(49.1847°N, 9.7240°E)
Time: 23:57:50
(UTC+00:00)

UWE-3 - Visible Passes

Search period start: 13 March 2026 00:00
Search period end: 23 March 2026 00:00
Orbit: 545 x 612 km, 97.9° (Epoch: 13 March)

Date Brightness Start Highest point End Pass type
(mag) Time Alt. Az. Time Alt. Az. Time Alt. Az.
13 Mar ? 02:16:42 10° NNE 02:18:35 25° NNE 02:18:35 25° NNE visible
13 Mar ? 03:53:27 10° NNW 03:54:54 13° NW 03:54:54 13° NW visible
14 Mar ? 02:21:11 10° NNE 02:23:14 28° NNE 02:23:14 28° NNE visible
14 Mar ? 03:58:11 10° NNW 03:59:33 13° NW 03:59:33 13° NW visible
15 Mar ? 02:25:40 10° NNE 02:27:53 30° N 02:27:53 30° N visible
15 Mar ? 04:02:58 10° NW 04:04:12 12° NW 04:04:12 12° NW visible
16 Mar ? 02:30:09 10° N 02:32:32 32° N 02:32:32 32° N visible
16 Mar ? 04:07:52 10° NW 04:08:50 11° NW 04:08:50 11° NW visible
17 Mar ? 01:00:46 10° NE 01:00:51 10° NE 01:00:51 10° NE visible
17 Mar ? 02:34:37 10° N 02:37:09 34° N 02:37:09 34° N visible
18 Mar ? 01:05:00 10° NE 01:05:28 12° ENE 01:05:28 12° ENE visible
18 Mar ? 02:39:05 10° N 02:41:46 36° N 02:41:46 36° N visible
19 Mar ? 01:09:14 10° NE 01:10:04 13° ENE 01:10:04 13° ENE visible
19 Mar ? 02:43:32 10° N 02:46:23 37° NNW 02:46:23 37° NNW visible
20 Mar ? 01:13:30 10° NE 01:14:40 15° ENE 01:14:40 15° ENE visible
20 Mar ? 02:48:00 10° N 02:50:58 38° NNW 02:50:58 38° NNW visible
21 Mar ? 01:17:47 10° NE 01:19:15 16° ENE 01:19:15 16° ENE visible
21 Mar ? 02:52:27 10° N 02:55:33 38° NNW 02:55:33 38° NNW visible
22 Mar ? 01:22:04 10° NE 01:23:49 18° ENE 01:23:49 18° ENE visible
22 Mar ? 02:56:54 10° N 03:00:07 37° NW 03:00:07 37° NW visible
